244P/Scotti (2012)

Japanese version
Home page
Updated on February 16, 2014

---------------------------------------------------------------------

* Profile

Designation 244P/2010 Q1
Recovery Date August 19, 2010
Magnitude 20.9 mag
Recoverer J. V. Scotti (Kitt Peak)

* Pictures

* Orbital Elements

Epoch 2012 Feb. 3.0 TT = JDT 2455960.5
T 2012 Jan. 20.31267 TT                                 MPC
q   3.9181930            (2000.0)            P               Q
n   0.09094259     Peri.   92.59110     +0.05661819     -0.99838784
a   4.8973126      Node   354.15864     +0.89963418     +0.05275957
e   0.1999300      Incl.    2.25905     +0.43295812     +0.02093181
P  10.8
From 952 observations 2000 Nov. 29-2013 Feb. 20, mean residual 0".6.

* Magnitudes Graph

        m1 = 3.0 + 5 log d + 20.0 log r(t - 100)

---------------------------------------------------------------------

The orbital elements are published on M.P.E.C. 2013-D50.
The magnitudes graphs are made with Comet for Windows.

---------------------------------------------------------------------

Copyright(C) Seiichi Yoshida (comet@aerith.net). All rights reserved.